AU224 Weather Reports


time (UTC)temp
C
wind
direction
speed
KPH
gust
KPH
rain 1hr
cm
rain 24hr
cm
rain mn
cm
humidity
%
barometer
mb
20260831200058 18 0 0.0 11.3 0.00 0.30 0.30 54 1018.0
20260831194637 18 281 6.4 17.7 0.00 0.30 0.30 54 1017.7
20260831193059 18 360 0.0 1.6 0.00 0.30 0.30 55 1017.6
20260831191601 18 0 1.6 12.9 0.00 0.30 0.30 54 1017.2
20260831190100 18 0 0.0 14.5 0.00 0.30 0.30 54 1017.0
20260831184556 19 0 0.0 8.0 0.00 0.30 0.30 52 1016.7
20260831183052 20 0 0.0 9.7 0.00 0.30 0.30 51 1016.3
20260831181608 20 360 0.0 14.5 0.00 0.30 0.30 50 1015.9
20260831180054 20 360 1.6 12.9 0.00 0.30 0.30 49 1015.7
20260831174556 20 205 6.4 25.7 0.00 0.30 0.30 48 1015.5
20260831173055 21 272 9.7 14.5 0.00 0.30 0.30 47 1015.4
20260831171555 21 360 12.9 25.7 0.00 0.30 0.30 45 1015.2
20260831170058 21 276 9.7 25.7 0.00 0.30 0.30 46 1015.1
20260831164556 21 232 6.4 20.9 0.00 0.30 0.30 44 1015.0
20260831163052 22 254 9.7 20.9 0.00 0.30 0.30 43 1015.1
20260831161600 22 300 11.3 20.9 0.00 0.30 0.30 45 1015.0
20260831160055 22 209 3.2 17.7 0.00 0.30 0.30 43 1014.9
20260831154616 23 204 1.6 30.6 0.00 0.30 0.30 43 1014.7
20260831153118 23 80 1.6 24.1 0.00 0.30 0.30 44 1014.8
20260831151603 23 360 8.0 24.1 0.00 0.30 0.30 43 1015.0
20260831150055 21 360 6.4 20.9 0.00 0.30 0.30 46 1015.0
20260831144626 23 360 16.1 29.0 0.00 0.30 0.30 45 1015.0
20260831143050 23 313 3.2 0.0 0.00 0.30 0.30 44 1015.1
20260831141557 23 360 8.0 32.2 0.00 0.30 0.30 44 1015.0
20260831140054 23 241 9.7 32.2 0.00 0.30 0.30 45 1015.0
20260831134555 22 360 14.5 14.5 0.00 0.30 0.30 45 1015.0
20260831133108 22 276 12.9 24.1 0.00 0.30 0.30 48 1015.3
20260831131603 21 252 11.3 17.7 0.00 0.30 0.30 51 1015.4
20260831130105 22 360 3.2 19.3 0.00 0.30 0.30 49 1015.4
20260831124555 22 161 9.7 32.2 0.00 0.30 0.30 49 1015.3
20260831123059 22 360 12.9 37.0 0.00 0.30 0.30 49 1015.4
20260831121554 22 360 9.7 29.0 0.00 0.30 0.30 51 1015.4
20260831120104 22 15 3.2 32.2 0.00 0.30 0.30 54 1015.4
20260831114607 22 293 6.4 0.0 0.00 0.30 0.30 53 1015.5
20260831113102 21 286 19.3 32.2 0.00 0.30 0.30 55 1015.6
20260831111558 22 279 4.8 17.7 0.00 0.30 0.30 59 1015.7
20260831110106 22 360 12.9 27.4 0.00 0.30 0.30 59 1015.6
20260831104551 21 360 4.8 25.7 0.00 0.30 0.30 62 1015.6
20260831103059 20 360 4.8 25.7 0.00 0.30 0.30 64 1015.8
20260831101557 20 360 4.8 20.9 0.00 0.30 0.30 67 1015.8
20260831100116 21 0 1.6 14.5 0.00 0.30 0.30 65 1015.8
20260831094548 20 0 0.0 4.8 0.00 0.30 0.30 69 1016.0
20260831093102 19 284 1.6 12.9 0.00 0.30 0.30 69 1016.0
20260831091601 19 172 1.6 14.5 0.00 0.30 0.30 70 1016.0
20260831090101 19 0 0.0 16.1 0.00 0.30 0.30 71 1016.0
20260831084632 19 294 11.3 0.0 0.00 0.30 0.30 71 1015.8
20260831083054 18 209 1.6 20.9 0.00 0.30 0.30 72 1015.7
20260831081547 18 255 8.0 22.5 0.00 0.30 0.30 74 1015.7
20260831080110 18 360 3.2 19.3 0.00 0.30 0.30 78 1015.6
20260831074601 17 302 8.0 16.1 0.00 0.30 0.30 78 1015.4
20260831073048 17 0 1.6 17.7 0.00 0.30 0.30 80 1015.3
20260831071607 17 0 4.8 16.1 0.00 0.30 0.30 80 1015.4
20260831070055 16 0 0.0 11.3 0.00 0.30 0.30 81 1015.1
20260831064553 16 0 0.0 16.1 0.00 0.30 0.30 82 1015.0
20260831063101 16 0 3.2 16.1 0.00 0.30 0.30 83 1014.7
20260831061558 16 168 0.0 12.9 0.00 0.30 0.30 84 1014.7
20260831060105 15 0 0.0 4.8 0.00 0.30 0.30 85 1014.6
20260831054555 15 0 0.0 8.0 0.00 0.30 0.30 85 1014.5
20260831053107 15 0 0.0 6.4 0.00 0.30 0.30 86 1014.5
20260831051556 15 0 0.0 9.7 0.00 0.30 0.30 85 1014.5
20260831050124 15 0 0.0 8.0 0.00 0.30 0.30 85 1014.3
20260831044552 15 0 1.6 12.9 0.00 0.30 0.30 85 1014.3
20260831043100 15 0 0.0 6.4 0.00 0.30 0.30 85 1014.2
20260831041617 15 134 0.0 8.0 0.00 0.30 0.30 84 1014.1
20260831040050 15 0 1.6 11.3 0.00 0.30 0.30 84 1014.1
20260831034556 15 185 0.0 9.7 0.00 0.30 0.30 84 1014.0
20260831033110 15 0 0.0 9.7 0.05 0.30 0.30 83 1014.1
20260831031554 15 174 0.0 4.8 0.25 0.30 0.30 83 1014.2
20260831030056 15 0 0.0 6.4 0.30 0.30 0.30 83 1014.3
20260831024559 16 0 0.0 19.3 0.28 0.28 0.28 82 1014.1
20260831023053 16 360 12.9 33.8 0.25 0.25 0.25 81 1014.6
20260831021549 16 272 3.2 0.0 0.03 0.03 0.03 79 1015.0
20260831014603 16 0 0.0 1.6 0.00 0.00 0.00 79 1011.7
20260831013059 16 0 0.0 0.0 0.00 0.00 0.00 79 1011.5
20260831011552 16 0 0.0 0.0 0.00 0.00 0.00 79 1011.7
20260831010106 16 0 0.0 0.0 0.00 0.00 0.00 79 1011.8
20260831004555 16 0 0.0 3.2 0.00 0.00 0.00 78 1012.0
20260831003101 16 0 0.0 0.0 0.00 0.00 0.00 77 1012.2
20260831001544 16 0 0.0 0.0 0.00 0.00 0.00 76 1012.3
20260831000055 16 0 0.0 0.0 0.00 0.00 0.00 75 1012.3
20260830234559 17 0 0.0 0.0 0.00 0.00 0.00 74 1012.3
20260830233056 17 0 0.0 0.0 0.00 0.00 0.00 74 1012.5
20260830231602 17 0 0.0 0.0 0.00 0.00 0.00 74 1012.6
20260830230053 17 0 0.0 0.0 0.00 0.00 0.00 74 1012.9
20260830224557 17 0 0.0 0.0 0.00 0.00 0.00 73 1012.8
20260830223055 17 0 0.0 0.0 0.00 0.00 0.00 73 1013.0
20260830221553 17 0 0.0 0.0 0.00 0.00 0.00 73 1013.1
20260830220059 18 0 0.0 0.0 0.00 0.00 0.00 73 1013.2
20260830214550 18 0 0.0 0.0 0.00 0.00 0.00 72 1013.2
20260830213059 18 0 0.0 0.0 0.00 0.00 0.00 72 1013.2
20260830211555 18 0 0.0 0.0 0.00 0.00 0.00 71 1013.4
20260830210105 18 0 0.0 0.0 0.00 0.00 0.00 71 1013.3
20260830204611 18 0 0.0 0.0 0.00 0.00 0.00 70 1013.3
20260830203058 18 0 0.0 0.0 0.00 0.00 0.00 69 1013.4
20260830201557 18 0 0.0 0.0 0.00 0.00 0.00 69 1013.4